{"data":{"norad_id":45383,"epoch":"2026-09-19T17:44:07.779552Z","epoch_age_seconds":80180,"freshness":"FRESH","line1":"1 45383U 20019Z   26262.73897893  .00065409  00000+0  39932-3 0  9999","line2":"2 45383  53.0411 263.5024 0002099  44.7964 315.3225 15.76795116360542","mean_motion":15.76795116,"eccentricity":0.0002099,"inclination_deg":53.0411,"raan_deg":263.5024,"arg_perigee_deg":44.7964,"mean_anomaly_deg":315.3225,"bstar":0.00039932,"rev_number":36054,"period_min":91.324483782838,"perigee_km":338.11777931544,"apogee_km":340.93785500568,"semimajor_km":6717.6648171606,"source":"CELESTRAK","updated_at":"2026-09-20T09:00:38.231868Z"}}